Weather History for Russellville, AR

Change the Weather History Date:

Saturday, March 16, 2013

  Actual Average (KHOT) Record (KHOT)
Temperature  
Mean Temperature 66 °F -  
Max Temperature 81 °F 65 °F 85 °F (1977)
Min Temperature 51 °F 41 °F 25 °F (1988)
Growing Degree Days 16 (Base 50)    
Moisture  
Dew Point 49 °F    
Average Humidity 58    
Maximum Humidity 86    
Minimum Humidity 34    
Precipitation  
Precipitation 0.00 in - - ()
Sea Level Pressure  
Sea Level Pressure 29.80 in    
Wind  
Wind Speed 2 mph (South)    
Max Wind Speed 9 mph    
Max Gust Speed -    
Visibility 10 miles    
Events      
Averages and records for this station are not official NWS values.
T = Trace of Precipitation, MM = Missing Value Source: NWS Daily Summary

Daily Weather History Graph

Daily Weather History Graph

Search for Another Location

Airport:

Trip Planner

Search our weather history database for the weather conditions in past years. The results will help you decide how hot, cold, wet, or windy it might be!

Date:

Astronomy

Mar. 16, 2013 Rise Set
Actual Time 7:21 AM CDT 7:21 PM CDT
Civil Twilight 6:55 AM CDT 7:46 PM CDT
Nautical Twilight 6:26 AM CDT 8:15 PM CDT
Astronomical Twilight 5:56 AM CDT 8:45 PM CDT
Moon 10:02 AM CDT (3/16) No Moon Set
Length of Visible Light 12h 50m
Length of Day
11h 59m
Waxing Crescent, 23% of the Moon is Illuminated
Mar 16
Waxing Crescent
Mar 19
First Quarter
Mar 27
Full
Apr 2
Last Quarter
Apr 10
New

Hourly Weather History & Observations

Time (CDT) Temp. Dew Point Humidity Pressure Visibility Wind Dir Wind Speed Gust Speed Precip Events Conditions
12:53 AM 59.0 °F 48.0 °F 67% 29.83 in 10.0 mi Calm Calm - N/A   Clear
1:53 AM 53.1 °F 46.9 °F 80% 29.82 in 10.0 mi Calm Calm - N/A   Clear
2:53 AM 52.0 °F 46.9 °F 83% 29.81 in 10.0 mi Calm Calm - N/A   Clear
3:53 AM 53.1 °F 46.0 °F 77% 29.81 in 10.0 mi Calm Calm - N/A   Clear
4:53 AM 51.1 °F 46.9 °F 86% 29.80 in 10.0 mi Calm Calm - N/A   Clear
5:53 AM 53.1 °F 46.9 °F 80% 29.81 in 10.0 mi Calm Calm - N/A   Clear
6:53 AM 61.0 °F 48.0 °F 62% 29.82 in 10.0 mi South 5.8 mph - N/A   Clear
7:53 AM 60.1 °F 48.0 °F 64% 29.84 in 10.0 mi South 3.5 mph - N/A   Clear
8:53 AM 64.0 °F 48.9 °F 58% 29.85 in 10.0 mi South 5.8 mph - N/A   Clear
9:53 AM 66.9 °F 48.9 °F 52% 29.85 in 10.0 mi South 8.1 mph - N/A   Clear
10:53 AM 71.1 °F 50.0 °F 47% 29.86 in 10.0 mi SSW 6.9 mph - N/A   Clear
11:53 AM 73.0 °F 50.0 °F 44% 29.84 in 10.0 mi West 5.8 mph - N/A   Clear
12:53 PM 75.0 °F 48.9 °F 40% 29.83 in 10.0 mi South 5.8 mph - N/A   Clear
1:53 PM 78.1 °F 48.9 °F 36% 29.80 in 10.0 mi South 8.1 mph - N/A   Clear
2:53 PM 79.0 °F 50.0 °F 36% 29.77 in 10.0 mi SSE 8.1 mph - N/A   Clear
3:53 PM 79.0 °F 48.0 °F 34% 29.75 in 10.0 mi Variable 3.5 mph - N/A   Clear
4:53 PM 80.1 °F 50.0 °F 35% 29.73 in 10.0 mi South 9.2 mph - N/A   Clear
5:53 PM 79.0 °F 51.1 °F 38% 29.73 in 10.0 mi South 8.1 mph - N/A   Clear
6:53 PM 75.0 °F 51.1 °F 43% 29.74 in 10.0 mi Calm Calm - N/A   Partly Cloudy
7:53 PM 68.0 °F 51.1 °F 55% 29.75 in 10.0 mi Calm Calm - N/A   Clear
8:53 PM 63.0 °F 51.1 °F 65% 29.77 in 10.0 mi Calm Calm - N/A   Clear
9:53 PM 61.0 °F 51.1 °F 70% 29.78 in 10.0 mi Calm Calm - N/A   Clear
10:53 PM 59.0 °F 50.0 °F 72% 29.79 in 10.0 mi Calm Calm - N/A   Scattered Clouds
11:53 PM 57.9 °F 51.1 °F 78% 29.79 in 10.0 mi Calm Calm - N/A   Partly Cloudy